Track NUSAT 2 (BATATA) now! 10-day predictions NUSAT 2 (BATATA) is classified as:
1 41558U 16033C 23265.08216804 .00598431 15564-3 13589-2 0 9995 2 41558 97.4157 27.6648 0004845 253.8639 106.2104 15.97513491409224